This is the latest recevied weather packets stored in our database for station/object KB9HUO. If no packets are shown the sender has not sent any weather packets the latest 1 day(s).
| Time | Temp. | Humidity | Pressure | Rain* | Wind** | Luminosity | Snow |
|---|---|---|---|---|---|---|---|
| 1778047159 | 8.89° C | 98% | 1009.8 hPa | 4.32 mm | - | 0 W/m² | - |
| 1778045644 | 8.89° C | 98% | 1009.8 hPa | 7.87 mm | - | 0 W/m² | - |
| 1778044738 | 9.44° C | 98% | 1009.9 hPa | 7.11 mm | - | 0 W/m² | - |
| 1778044434 | 9.44° C | 98% | 1009.6 hPa | 6.1 mm | - | 0 W/m² | - |
| 1778044131 | 9.44° C | 98% | 1009.7 hPa | 3.56 mm | - | 0 W/m² | - |
| 1778043829 | 9.44° C | 98% | 1009.6 hPa | 1.78 mm | - | 0 W/m² | - |
| 1778043222 | 9.44° C | 98% | 1009.1 hPa | 0 mm | - | 0 W/m² | - |
| 1778042919 | 9.44° C | 98% | 1009.1 hPa | 1.27 mm | - | 0 W/m² | - |
| 1778042617 | 9.44° C | 98% | 1009.3 hPa | 3.05 mm | - | 0 W/m² | - |
| 1778042314 | 9.44° C | 98% | 1009.2 hPa | 3.05 mm | - | 0 W/m² | - |
| 1778042011 | 9.44° C | 98% | 1009.3 hPa | 6.1 mm | - | 0 W/m² | - |
| 1778041709 | 9.44° C | 98% | 1009.5 hPa | 8.89 mm | - | 0 W/m² | - |
| 1778041408 | 9.44° C | 98% | 1008.9 hPa | 8.89 mm | - | 0 W/m² | - |
| 1778041106 | 9.44° C | 98% | 1009.2 hPa | 6.6 mm | - | 0 W/m² | - |
| 1778040803 | 9.44° C | 98% | 1009.1 hPa | 6.6 mm | - | 0 W/m² | - |
| 1778040500 | 9.44° C | 98% | 1008.7 hPa | 7.11 mm | - | 0 W/m² | - |
| 1778039591 | 9.44° C | 98% | 1008.9 hPa | 1.27 mm | - | 0 W/m² | - |
| 1778038682 | 9.44° C | 98% | 1008.9 hPa | 9.65 mm | - | 0 W/m² | - |
| 1778038379 | 9.44° C | 98% | 1009 hPa | 14.99 mm | - | 0 W/m² | - |
| 1778038076 | 10° C | 98% | 1010.1 hPa | 10.67 mm | - | 0 W/m² | - |
| 1778037773 | 10° C | 98% | 1009.8 hPa | 4.32 mm | - | 0 W/m² | - |
| 1778037469 | 10° C | 98% | 1009.3 hPa | 3.05 mm | - | 0 W/m² | - |
| 1778037167 | 10° C | 98% | 1009.3 hPa | 3.05 mm | - | 0 W/m² | - |
| 1778036865 | 10° C | 98% | 1008.9 hPa | 7.87 mm | - | 0 W/m² | - |
| 1778036259 | 10° C | 98% | 1009 hPa | 3.05 mm | - | 0 W/m² | - |
* Rain latest hour (hover to see other rain measurements)
** Current wind speed in m/s (hover to see current wind gust speed)